Year,Month,Day,Hour,Minute,Value (Times are PST for temperature in C)
2015,04,28,00,00,10.40
2015,04,28,00,01,10.40
2015,04,28,00,02,10.40
2015,04,28,00,03,10.40
2015,04,28,00,04,10.30
2015,04,28,00,05,10.40
2015,04,28,00,06,10.40
2015,04,28,00,07,10.40
2015,04,28,00,08,10.40
2015,04,28,00,09,10.40
2015,04,28,00,10,10.30
2015,04,28,00,11,10.30
2015,04,28,00,12,10.30
2015,04,28,00,13,10.30
2015,04,28,00,14,10.30
2015,04,28,00,15,10.30
2015,04,28,00,16,10.30
2015,04,28,00,17,10.30
2015,04,28,00,18,10.30
2015,04,28,00,19,10.30
2015,04,28,00,20,10.20
2015,04,28,00,21,10.20
2015,04,28,00,22,10.20
2015,04,28,00,23,10.20
2015,04,28,00,24,10.20
2015,04,28,00,25,10.20
2015,04,28,00,26,10.20
2015,04,28,00,27,10.20
2015,04,28,00,28,10.20
2015,04,28,00,29,10.20
2015,04,28,00,30,10.20
2015,04,28,00,31,10.10
2015,04,28,00,32,10.10
2015,04,28,00,33,10.10
2015,04,28,00,34,10.10
2015,04,28,00,35,10.00
2015,04,28,00,36,10.00
2015,04,28,00,37,10.00
2015,04,28,00,38,10.00
2015,04,28,00,39,10.00
2015,04,28,00,40,10.00
2015,04,28,00,41,10.00
2015,04,28,00,42,10.00
2015,04,28,00,43,10.00
2015,04,28,00,44,10.00
2015,04,28,00,45,10.00
2015,04,28,00,46,10.00
2015,04,28,00,47,9.90
2015,04,28,00,48,9.90
2015,04,28,00,49,9.90
2015,04,28,00,50,9.90
2015,04,28,00,51,9.90
2015,04,28,00,52,9.90
2015,04,28,00,53,9.90
2015,04,28,00,54,9.90
2015,04,28,00,55,9.90
2015,04,28,00,56,9.90
2015,04,28,00,57,9.90
2015,04,28,00,58,9.80
2015,04,28,00,59,9.80
2015,04,28,01,00,9.90
2015,04,28,01,01,9.90
2015,04,28,01,02,9.90
2015,04,28,01,03,9.90
2015,04,28,01,04,9.90
2015,04,28,01,05,9.90
2015,04,28,01,06,9.90
2015,04,28,01,07,9.90
2015,04,28,01,08,9.90
2015,04,28,01,09,9.90
2015,04,28,01,10,9.90
2015,04,28,01,11,9.90
2015,04,28,01,12,9.80
2015,04,28,01,13,9.80
2015,04,28,01,14,9.80
2015,04,28,01,15,9.80
2015,04,28,01,16,9.80
2015,04,28,01,17,9.90
2015,04,28,01,18,9.90
2015,04,28,01,19,9.90
2015,04,28,01,20,9.90
2015,04,28,01,21,9.90
2015,04,28,01,22,9.90
2015,04,28,01,23,9.90
2015,04,28,01,24,9.90
2015,04,28,01,25,10.00
2015,04,28,01,26,10.00
2015,04,28,01,27,10.00
2015,04,28,01,28,10.00
2015,04,28,01,29,10.00
2015,04,28,01,30,10.00
2015,04,28,01,31,10.00
2015,04,28,01,32,10.00
2015,04,28,01,33,10.00
2015,04,28,01,34,10.00
2015,04,28,01,35,10.10
2015,04,28,01,36,10.10
2015,04,28,01,37,10.10
2015,04,28,01,38,10.10
2015,04,28,01,39,10.10
2015,04,28,01,40,10.00
2015,04,28,01,41,10.00
2015,04,28,01,42,10.00
2015,04,28,01,43,10.00
2015,04,28,01,44,10.00
2015,04,28,01,45,10.00
2015,04,28,01,46,10.00
2015,04,28,01,47,10.00
2015,04,28,01,48,9.90
2015,04,28,01,49,9.90
2015,04,28,01,50,9.90
2015,04,28,01,51,9.90
2015,04,28,01,52,9.90
2015,04,28,01,53,9.90
2015,04,28,01,54,9.90
2015,04,28,01,55,9.80
2015,04,28,01,56,9.80
2015,04,28,01,57,9.80
2015,04,28,01,58,9.80
2015,04,28,01,59,9.80
2015,04,28,02,00,9.80
2015,04,28,02,01,9.80
2015,04,28,02,02,9.80
2015,04,28,02,03,9.80
2015,04,28,02,04,9.80
2015,04,28,02,05,9.80
2015,04,28,02,06,9.80
2015,04,28,02,07,9.70
2015,04,28,02,08,9.70
2015,04,28,02,09,9.80
2015,04,28,02,10,9.70
2015,04,28,02,11,9.70
2015,04,28,02,12,9.70
2015,04,28,02,13,9.70
2015,04,28,02,14,9.70
2015,04,28,02,15,9.70
2015,04,28,02,16,9.70
2015,04,28,02,17,9.70
2015,04,28,02,18,9.80
2015,04,28,02,19,9.80
2015,04,28,02,20,9.80
2015,04,28,02,21,9.80
2015,04,28,02,22,9.80
2015,04,28,02,23,9.80
2015,04,28,02,24,9.80
2015,04,28,02,25,9.80
2015,04,28,02,26,9.70
2015,04,28,02,27,9.70
2015,04,28,02,28,9.70
2015,04,28,02,29,9.70
2015,04,28,02,30,9.70
2015,04,28,02,31,9.70
2015,04,28,02,32,9.70
2015,04,28,02,33,9.70
2015,04,28,02,34,9.70
2015,04,28,02,35,9.70
2015,04,28,02,36,9.70
2015,04,28,02,37,9.70
2015,04,28,02,38,9.70
2015,04,28,02,39,9.70
2015,04,28,02,40,9.70
2015,04,28,02,41,9.70
2015,04,28,02,42,9.70
2015,04,28,02,43,9.70
2015,04,28,02,44,9.90
2015,04,28,02,45,10.30
2015,04,28,02,46,10.30
2015,04,28,02,47,10.30
2015,04,28,02,48,10.30
2015,04,28,02,49,10.30
2015,04,28,02,50,10.20
2015,04,28,02,51,10.20
2015,04,28,02,52,10.10
2015,04,28,02,53,10.10
2015,04,28,02,54,10.10
2015,04,28,02,55,10.10
2015,04,28,02,56,10.10
2015,04,28,02,57,10.10
2015,04,28,02,58,10.30
2015,04,28,02,59,10.60
2015,04,28,03,00,10.90
2015,04,28,03,01,11.40
2015,04,28,03,02,12.20
2015,04,28,03,03,13.00
2015,04,28,03,04,13.80
2015,04,28,03,05,14.40
2015,04,28,03,06,14.80
2015,04,28,03,07,15.20
2015,04,28,03,08,15.40
2015,04,28,03,09,15.60
2015,04,28,03,10,15.70
2015,04,28,03,11,15.80
2015,04,28,03,12,15.80
2015,04,28,03,13,15.90
2015,04,28,03,14,15.90
2015,04,28,03,15,15.90
2015,04,28,03,16,15.90
2015,04,28,03,17,15.90
2015,04,28,03,18,15.90
2015,04,28,03,19,15.80
2015,04,28,03,20,15.80
2015,04,28,03,21,15.80
2015,04,28,03,22,15.70
2015,04,28,03,23,15.70
2015,04,28,03,24,15.70
2015,04,28,03,25,15.70
2015,04,28,03,26,15.70
2015,04,28,03,27,15.80
2015,04,28,03,28,15.90
2015,04,28,03,29,15.90
2015,04,28,03,30,15.90
2015,04,28,03,31,15.90
2015,04,28,03,32,15.90
2015,04,28,03,33,15.90
2015,04,28,03,34,16.00
2015,04,28,03,35,16.00
2015,04,28,03,36,16.10
2015,04,28,03,37,16.10
2015,04,28,03,38,16.10
2015,04,28,03,39,16.10
2015,04,28,03,40,16.10
2015,04,28,03,41,16.10
2015,04,28,03,42,16.10
2015,04,28,03,43,16.10
2015,04,28,03,44,16.10
2015,04,28,03,45,16.10
2015,04,28,03,46,16.00
2015,04,28,03,47,16.00
2015,04,28,03,48,15.90
2015,04,28,03,49,15.90
2015,04,28,03,50,15.90
2015,04,28,03,51,15.80
2015,04,28,03,52,15.80
2015,04,28,03,53,15.80
2015,04,28,03,54,15.80
2015,04,28,03,55,15.80
2015,04,28,03,56,15.80
2015,04,28,03,57,15.70
2015,04,28,03,58,15.70
2015,04,28,03,59,15.70
2015,04,28,04,00,15.70
2015,04,28,04,01,15.70
2015,04,28,04,02,15.70
2015,04,28,04,03,15.70
2015,04,28,04,04,15.70
2015,04,28,04,05,15.80
2015,04,28,04,06,15.80
2015,04,28,04,07,15.80
2015,04,28,04,08,15.80
2015,04,28,04,09,15.80
2015,04,28,04,10,15.80
2015,04,28,04,11,15.80
2015,04,28,04,12,15.80
2015,04,28,04,13,15.80
2015,04,28,04,14,15.80
2015,04,28,04,15,15.80
2015,04,28,04,16,15.80
2015,04,28,04,17,15.80
2015,04,28,04,18,15.80
2015,04,28,04,19,15.80
2015,04,28,04,20,15.80
2015,04,28,04,21,15.80
2015,04,28,04,22,15.80
2015,04,28,04,23,15.80
2015,04,28,04,24,15.80
2015,04,28,04,25,15.90
2015,04,28,04,26,15.90
2015,04,28,04,27,15.80
2015,04,28,04,28,15.80
2015,04,28,04,29,15.80
2015,04,28,04,30,15.80
2015,04,28,04,31,15.70
2015,04,28,04,32,15.70
2015,04,28,04,33,15.70
2015,04,28,04,34,15.60
2015,04,28,04,35,15.60
2015,04,28,04,36,15.60
2015,04,28,04,37,15.60
2015,04,28,04,38,15.50
2015,04,28,04,39,15.50
2015,04,28,04,40,15.40
2015,04,28,04,41,15.40
2015,04,28,04,42,15.40
2015,04,28,04,43,15.40
2015,04,28,04,44,15.40
2015,04,28,04,45,15.40
2015,04,28,04,46,15.30
2015,04,28,04,47,15.30
2015,04,28,04,48,15.30
2015,04,28,04,49,15.30
2015,04,28,04,50,15.30
2015,04,28,04,51,15.30
2015,04,28,04,52,15.30
2015,04,28,04,53,15.30
2015,04,28,04,54,15.30
2015,04,28,04,55,15.30
2015,04,28,04,56,15.30
2015,04,28,04,57,15.40
2015,04,28,04,58,15.40
2015,04,28,04,59,15.40
2015,04,28,05,00,15.40
2015,04,28,05,01,15.40
2015,04,28,05,02,15.40
2015,04,28,05,03,15.40
2015,04,28,05,04,15.40
2015,04,28,05,05,15.40
2015,04,28,05,06,15.40
2015,04,28,05,07,15.40
2015,04,28,05,08,15.40
2015,04,28,05,09,15.40
2015,04,28,05,10,15.40
2015,04,28,05,11,15.30
2015,04,28,05,12,15.30
2015,04,28,05,13,15.30
2015,04,28,05,14,15.20
2015,04,28,05,15,15.20
2015,04,28,05,16,15.20
2015,04,28,05,17,15.20
2015,04,28,05,18,15.10
2015,04,28,05,19,15.10
2015,04,28,05,20,15.00
2015,04,28,05,21,15.00
2015,04,28,05,22,14.90
2015,04,28,05,23,14.90
2015,04,28,05,24,14.90
2015,04,28,05,25,14.90
2015,04,28,05,26,14.90
2015,04,28,05,27,14.90
2015,04,28,05,28,14.90
2015,04,28,05,29,14.90
2015,04,28,05,30,14.90
2015,04,28,05,31,14.90
2015,04,28,05,32,14.90
2015,04,28,05,33,14.90
2015,04,28,05,34,15.00
2015,04,28,05,35,15.00
2015,04,28,05,36,15.10
2015,04,28,05,37,15.10
2015,04,28,05,38,15.10
2015,04,28,05,39,15.00
2015,04,28,05,40,15.00
2015,04,28,05,41,15.00
2015,04,28,05,42,15.00
2015,04,28,05,43,15.00
2015,04,28,05,44,15.10
2015,04,28,05,45,15.10
2015,04,28,05,46,15.20
2015,04,28,05,47,15.20
2015,04,28,05,48,15.20
2015,04,28,05,49,15.10
2015,04,28,05,50,15.10
2015,04,28,05,51,15.10
2015,04,28,05,52,15.10
2015,04,28,05,53,15.10
2015,04,28,05,54,15.10
2015,04,28,05,55,15.10
2015,04,28,05,56,15.00
2015,04,28,05,57,15.00
2015,04,28,05,58,14.90
2015,04,28,05,59,14.80
2015,04,28,06,00,14.80
2015,04,28,06,01,14.80
2015,04,28,06,02,14.80
2015,04,28,06,03,14.80
2015,04,28,06,04,14.80
2015,04,28,06,05,14.80
2015,04,28,06,06,14.80
2015,04,28,06,07,14.80
2015,04,28,06,08,14.80
2015,04,28,06,09,14.90
2015,04,28,06,10,14.90
2015,04,28,06,11,15.00
2015,04,28,06,12,15.00
2015,04,28,06,13,15.10
2015,04,28,06,14,15.00
2015,04,28,06,15,15.00
2015,04,28,06,16,15.00
2015,04,28,06,17,15.00
2015,04,28,06,18,15.00
2015,04,28,06,19,15.00
2015,04,28,06,20,15.00
2015,04,28,06,21,15.00
2015,04,28,06,22,15.00
2015,04,28,06,23,15.00
2015,04,28,06,24,15.00
2015,04,28,06,25,15.00
2015,04,28,06,26,14.90
2015,04,28,06,27,14.90
2015,04,28,06,28,14.90
2015,04,28,06,29,14.90
2015,04,28,06,30,14.80
2015,04,28,06,31,14.80
2015,04,28,06,32,14.80
2015,04,28,06,33,14.80
2015,04,28,06,34,14.80
2015,04,28,06,35,14.80
2015,04,28,06,36,14.80
2015,04,28,06,37,14.80
2015,04,28,06,38,14.80
2015,04,28,06,39,14.80
2015,04,28,06,40,14.80
2015,04,28,06,41,14.80
2015,04,28,06,42,14.80
2015,04,28,06,43,14.80
2015,04,28,06,44,14.80
2015,04,28,06,45,14.80
2015,04,28,06,46,14.80
2015,04,28,06,47,14.80
2015,04,28,06,48,14.80
2015,04,28,06,49,14.80
2015,04,28,06,50,14.80
2015,04,28,06,51,14.90
2015,04,28,06,52,14.90
2015,04,28,06,53,14.90
2015,04,28,06,54,14.90
2015,04,28,06,55,14.90
2015,04,28,06,56,15.00
2015,04,28,06,57,15.00
2015,04,28,06,58,15.00
2015,04,28,06,59,15.00
2015,04,28,07,00,15.10
2015,04,28,07,01,15.10
2015,04,28,07,02,15.10
2015,04,28,07,03,15.10
2015,04,28,07,04,15.20
2015,04,28,07,05,15.20
2015,04,28,07,06,15.20
2015,04,28,07,07,15.20
2015,04,28,07,08,15.30
2015,04,28,07,09,15.30
2015,04,28,07,10,15.30
2015,04,28,07,11,15.30
2015,04,28,07,12,15.30
2015,04,28,07,13,15.30
2015,04,28,07,14,15.30
2015,04,28,07,15,15.30
2015,04,28,07,16,15.40
2015,04,28,07,17,15.40
2015,04,28,07,18,15.40
2015,04,28,07,19,15.40
2015,04,28,07,20,15.40
2015,04,28,07,21,15.40
2015,04,28,07,22,15.30
2015,04,28,07,23,15.30
2015,04,28,07,24,15.30
2015,04,28,07,25,15.30
2015,04,28,07,26,15.30
2015,04,28,07,27,15.30
2015,04,28,07,28,15.30
2015,04,28,07,29,15.30
2015,04,28,07,30,15.30
2015,04,28,07,31,15.30
2015,04,28,07,32,15.20
2015,04,28,07,33,15.20
2015,04,28,07,34,15.20
2015,04,28,07,35,15.20
2015,04,28,07,36,15.10
2015,04,28,07,37,15.10
2015,04,28,07,38,15.10
2015,04,28,07,39,15.10
2015,04,28,07,40,15.00
2015,04,28,07,41,15.00
2015,04,28,07,42,14.90
2015,04,28,07,43,14.90
2015,04,28,07,44,14.90
2015,04,28,07,45,14.90
2015,04,28,07,46,14.80
2015,04,28,07,47,14.80
2015,04,28,07,48,14.80
2015,04,28,07,49,14.70
2015,04,28,07,50,14.70
2015,04,28,07,51,14.60
2015,04,28,07,52,14.50
2015,04,28,07,53,14.50
2015,04,28,07,54,14.40
2015,04,28,07,55,14.40
2015,04,28,07,56,14.30
2015,04,28,07,57,14.30
2015,04,28,07,58,14.30
2015,04,28,07,59,14.20
2015,04,28,08,00,14.20
2015,04,28,08,01,14.20
2015,04,28,08,02,14.10
2015,04,28,08,03,14.10
2015,04,28,08,04,14.00
2015,04,28,08,05,14.00
2015,04,28,08,06,13.90
2015,04,28,08,07,13.90
2015,04,28,08,08,13.90
2015,04,28,08,09,13.90
2015,04,28,08,10,13.80
2015,04,28,08,11,13.80
2015,04,28,08,12,13.80
2015,04,28,08,13,13.70
2015,04,28,08,14,13.60
2015,04,28,08,15,13.60
2015,04,28,08,16,13.50
2015,04,28,08,17,13.40
2015,04,28,08,18,13.30
2015,04,28,08,19,13.30
2015,04,28,08,20,13.20
2015,04,28,08,21,13.10
2015,04,28,08,22,13.00
2015,04,28,08,23,12.90
2015,04,28,08,24,12.90
2015,04,28,08,25,12.80
2015,04,28,08,26,12.80
2015,04,28,08,27,12.70
2015,04,28,08,28,12.70
2015,04,28,08,29,12.70
2015,04,28,08,30,12.60
2015,04,28,08,31,12.60
2015,04,28,08,32,12.60
2015,04,28,08,33,12.50
2015,04,28,08,34,12.50
2015,04,28,08,35,12.40
2015,04,28,08,36,12.40
2015,04,28,08,37,12.30
2015,04,28,08,38,12.30
2015,04,28,08,39,12.30
2015,04,28,08,40,12.20
2015,04,28,08,41,12.20
2015,04,28,08,42,12.20
2015,04,28,08,43,12.20
2015,04,28,08,44,12.20
2015,04,28,08,45,12.20
2015,04,28,08,46,12.20
2015,04,28,08,47,12.20
2015,04,28,08,48,12.20
2015,04,28,08,49,12.20
2015,04,28,08,50,12.20
2015,04,28,08,51,12.20
2015,04,28,08,52,12.20
2015,04,28,08,53,12.20
2015,04,28,08,54,12.20
2015,04,28,08,55,12.20
2015,04,28,08,56,12.20
2015,04,28,08,57,12.30
2015,04,28,08,58,12.30
2015,04,28,08,59,12.30
2015,04,28,09,00,12.30
2015,04,28,09,01,12.40
2015,04,28,09,02,12.40
2015,04,28,09,03,12.40
2015,04,28,09,04,12.50
2015,04,28,09,05,12.50
2015,04,28,09,06,12.50
2015,04,28,09,07,12.50
2015,04,28,09,08,12.60
2015,04,28,09,09,12.60
2015,04,28,09,10,12.60
2015,04,28,09,11,12.60
2015,04,28,09,12,12.60
2015,04,28,09,13,12.60
2015,04,28,09,14,12.60
2015,04,28,09,15,12.60
2015,04,28,09,16,12.60
2015,04,28,09,17,12.60
2015,04,28,09,18,12.60
2015,04,28,09,19,12.60
2015,04,28,09,20,12.60
2015,04,28,09,21,12.60
2015,04,28,09,22,12.60
2015,04,28,09,23,12.60
2015,04,28,09,24,12.60
2015,04,28,09,25,12.60
2015,04,28,09,26,12.50
2015,04,28,09,27,12.50
2015,04,28,09,28,12.60
2015,04,28,09,29,12.60
2015,04,28,09,30,12.60
2015,04,28,09,31,12.60
2015,04,28,09,32,12.60
2015,04,28,09,33,12.60
2015,04,28,09,34,12.60
2015,04,28,09,35,12.60
2015,04,28,09,36,12.60
2015,04,28,09,37,12.60
2015,04,28,09,38,12.60
2015,04,28,09,39,12.60
2015,04,28,09,40,12.50
2015,04,28,09,41,12.50
2015,04,28,09,42,12.50
2015,04,28,09,43,12.50
2015,04,28,09,44,12.60
2015,04,28,09,45,12.60
2015,04,28,09,46,12.60
2015,04,28,09,47,12.60
2015,04,28,09,48,12.60
2015,04,28,09,49,12.50
2015,04,28,09,50,12.50
2015,04,28,09,51,12.50
2015,04,28,09,52,12.40
2015,04,28,09,53,12.40
2015,04,28,09,54,12.40
2015,04,28,09,55,12.40
2015,04,28,09,56,12.40
2015,04,28,09,57,12.50
2015,04,28,09,58,12.50
2015,04,28,09,59,12.50
2015,04,28,10,00,12.50
2015,04,28,10,01,12.50
2015,04,28,10,02,12.60
2015,04,28,10,03,12.50
2015,04,28,10,04,12.50
2015,04,28,10,05,12.40
2015,04,28,10,06,12.30
2015,04,28,10,07,12.30
2015,04,28,10,08,12.30
2015,04,28,10,09,12.20
2015,04,28,10,10,12.20
2015,04,28,10,11,12.20
2015,04,28,10,12,12.20
2015,04,28,10,13,12.20
2015,04,28,10,14,12.20
2015,04,28,10,15,12.10
2015,04,28,10,16,12.10
2015,04,28,10,17,12.00
2015,04,28,10,18,12.00
2015,04,28,10,19,12.00
2015,04,28,10,20,11.90
2015,04,28,10,21,11.80
2015,04,28,10,22,11.70
2015,04,28,10,23,11.70
2015,04,28,10,24,11.60
2015,04,28,10,25,11.50
2015,04,28,10,26,11.50
2015,04,28,10,27,11.40
2015,04,28,10,28,11.40
2015,04,28,10,29,11.30
2015,04,28,10,30,11.30
2015,04,28,10,31,11.30
2015,04,28,10,32,11.30
2015,04,28,10,33,11.30
2015,04,28,10,34,11.20
2015,04,28,10,35,11.20
2015,04,28,10,36,11.10
2015,04,28,10,37,11.10
2015,04,28,10,38,11.10
2015,04,28,10,39,11.10
2015,04,28,10,40,11.00
2015,04,28,10,41,11.00
2015,04,28,10,42,10.90
2015,04,28,10,43,10.90
2015,04,28,10,44,10.90
2015,04,28,10,45,10.80
2015,04,28,10,46,10.80
2015,04,28,10,47,10.80
2015,04,28,10,48,10.80
2015,04,28,10,49,10.80
2015,04,28,10,50,10.80
2015,04,28,10,51,10.70
2015,04,28,10,52,10.70
2015,04,28,10,53,10.70
2015,04,28,10,54,10.70
2015,04,28,10,55,10.70
2015,04,28,10,56,10.70
2015,04,28,10,57,10.70
2015,04,28,10,58,10.70
2015,04,28,10,59,10.70
2015,04,28,11,00,10.70
2015,04,28,11,01,10.70
2015,04,28,11,02,10.70
2015,04,28,11,03,10.70
2015,04,28,11,04,10.70
2015,04,28,11,05,10.70
2015,04,28,11,06,10.70
2015,04,28,11,07,10.70
2015,04,28,11,08,10.70
2015,04,28,11,09,10.70
2015,04,28,11,10,10.70
2015,04,28,11,11,10.70
2015,04,28,11,12,10.70
2015,04,28,11,13,10.70
2015,04,28,11,14,10.70
2015,04,28,11,15,10.70
2015,04,28,11,16,10.70
2015,04,28,11,17,10.80
2015,04,28,11,18,10.80
2015,04,28,11,19,10.80
2015,04,28,11,20,10.80
2015,04,28,11,21,10.80
2015,04,28,11,22,10.80
2015,04,28,11,23,10.80
2015,04,28,11,24,10.80
2015,04,28,11,25,10.80
2015,04,28,11,26,10.80
2015,04,28,11,27,10.80
2015,04,28,11,28,10.80
2015,04,28,11,29,10.80
2015,04,28,11,30,10.80
2015,04,28,11,31,10.90
2015,04,28,11,32,10.90
2015,04,28,11,33,10.90
2015,04,28,11,34,10.90
2015,04,28,11,35,10.90
2015,04,28,11,36,10.90
2015,04,28,11,37,10.90
2015,04,28,11,38,11.00
2015,04,28,11,39,11.00
2015,04,28,11,40,11.00
2015,04,28,11,41,11.10
2015,04,28,11,42,11.10
2015,04,28,11,43,11.10
2015,04,28,11,44,11.20
2015,04,28,11,45,11.20
2015,04,28,11,46,11.20
2015,04,28,11,47,11.30
2015,04,28,11,48,11.30
2015,04,28,11,49,11.30
2015,04,28,11,50,11.30
2015,04,28,11,51,11.30
2015,04,28,11,52,11.40
2015,04,28,11,53,11.40
2015,04,28,11,54,11.40
2015,04,28,11,55,11.40
2015,04,28,11,56,11.50
2015,04,28,11,57,11.50
2015,04,28,11,58,11.60
2015,04,28,11,59,11.60
2015,04,28,12,00,11.60
2015,04,28,12,01,11.60
2015,04,28,12,02,11.70
2015,04,28,12,03,11.70
2015,04,28,12,04,11.70
2015,04,28,12,05,11.70
2015,04,28,12,06,11.80
2015,04,28,12,07,11.80
2015,04,28,12,08,11.80
2015,04,28,12,09,11.90
2015,04,28,12,10,11.90
2015,04,28,12,11,12.00
2015,04,28,12,12,12.00
2015,04,28,12,13,12.10
2015,04,28,12,14,12.10
2015,04,28,12,15,12.20
2015,04,28,12,16,12.20
2015,04,28,12,17,12.30
2015,04,28,12,18,12.30
2015,04,28,12,19,12.30
2015,04,28,12,20,12.40
2015,04,28,12,21,12.40
2015,04,28,12,22,12.50
2015,04,28,12,23,12.50
2015,04,28,12,24,12.50
2015,04,28,12,25,12.60
2015,04,28,12,26,12.60
2015,04,28,12,27,12.60
2015,04,28,12,28,12.70
2015,04,28,12,29,12.70
2015,04,28,12,30,12.80
2015,04,28,12,31,12.80
2015,04,28,12,32,12.90
2015,04,28,12,33,13.00
2015,04,28,12,34,13.10
2015,04,28,12,35,13.20
2015,04,28,12,36,13.20
2015,04,28,12,37,13.30
2015,04,28,12,38,13.30
2015,04,28,12,39,13.30
2015,04,28,12,40,13.30
2015,04,28,12,41,13.30
2015,04,28,12,42,13.20
2015,04,28,12,43,13.20
2015,04,28,12,44,13.20
2015,04,28,12,45,13.20
2015,04,28,12,46,13.30
2015,04,28,12,47,13.30
2015,04,28,12,48,13.30
2015,04,28,12,49,13.30
2015,04,28,12,50,13.40
2015,04,28,12,51,13.40
2015,04,28,12,52,13.50
2015,04,28,12,53,13.50
2015,04,28,12,54,13.60
2015,04,28,12,55,13.70
2015,04,28,12,56,13.70
2015,04,28,12,57,13.70
2015,04,28,12,58,13.80
2015,04,28,12,59,13.80
2015,04,28,13,00,13.90
2015,04,28,13,01,14.00
2015,04,28,13,02,14.10
2015,04,28,13,03,14.20
2015,04,28,13,04,14.20
2015,04,28,13,05,14.30
2015,04,28,13,06,14.40
2015,04,28,13,07,14.40
2015,04,28,13,08,14.50
2015,04,28,13,09,14.50
2015,04,28,13,10,14.60
2015,04,28,13,11,14.70
2015,04,28,13,12,14.70
2015,04,28,13,13,14.70
2015,04,28,13,14,14.70
2015,04,28,13,15,14.80
2015,04,28,13,16,14.80
2015,04,28,13,17,14.90
2015,04,28,13,18,15.00
2015,04,28,13,19,15.00
2015,04,28,13,20,15.00
2015,04,28,13,21,15.00
2015,04,28,13,22,15.00
2015,04,28,13,23,15.10
2015,04,28,13,24,15.10
2015,04,28,13,25,15.10
2015,04,28,13,26,15.10
2015,04,28,13,27,15.00
2015,04,28,13,28,14.80
2015,04,28,13,29,14.80
2015,04,28,13,30,14.80
2015,04,28,13,31,14.90
2015,04,28,13,32,15.00
2015,04,28,13,33,15.10
2015,04,28,13,34,15.20
2015,04,28,13,35,15.30
2015,04,28,13,36,15.30
2015,04,28,13,37,15.30
2015,04,28,13,38,15.30
2015,04,28,13,39,15.30
2015,04,28,13,40,15.30
2015,04,28,13,41,15.30
2015,04,28,13,42,15.30
2015,04,28,13,43,15.30
2015,04,28,13,44,15.30
2015,04,28,13,45,15.30
2015,04,28,13,46,15.30
2015,04,28,13,47,15.30
2015,04,28,13,48,15.40
2015,04,28,13,49,15.40
2015,04,28,13,50,15.40
2015,04,28,13,51,15.50
2015,04,28,13,52,15.60
2015,04,28,13,53,15.60
2015,04,28,13,54,15.60
2015,04,28,13,55,15.70
2015,04,28,13,56,15.70
2015,04,28,13,57,15.60
2015,04,28,13,58,15.70
2015,04,28,13,59,15.80
2015,04,28,14,00,15.80
2015,04,28,14,01,15.90
2015,04,28,14,02,15.90
2015,04,28,14,03,15.90
2015,04,28,14,04,15.90
2015,04,28,14,05,15.90
2015,04,28,14,06,15.90
2015,04,28,14,07,16.00
2015,04,28,14,08,16.00
2015,04,28,14,09,16.10
2015,04,28,14,10,16.10
2015,04,28,14,11,16.10
2015,04,28,14,12,16.10
2015,04,28,14,13,16.20
2015,04,28,14,14,16.30
2015,04,28,14,15,16.40
2015,04,28,14,16,16.40
2015,04,28,14,17,16.50
2015,04,28,14,18,16.50
2015,04,28,14,19,16.60
2015,04,28,14,20,16.70
2015,04,28,14,21,16.70
2015,04,28,14,22,16.70
2015,04,28,14,23,16.70
2015,04,28,14,24,16.70
2015,04,28,14,25,16.80
2015,04,28,14,26,16.80
2015,04,28,14,27,16.80
2015,04,28,14,28,16.80
2015,04,28,14,29,16.90
2015,04,28,14,30,16.90
2015,04,28,14,31,16.80
2015,04,28,14,32,16.80
2015,04,28,14,33,16.70
2015,04,28,14,34,16.70
2015,04,28,14,35,16.60
2015,04,28,14,36,16.50
2015,04,28,14,37,16.40
2015,04,28,14,38,16.50
2015,04,28,14,39,16.50
2015,04,28,14,40,16.60
2015,04,28,14,41,16.80
2015,04,28,14,42,17.00
2015,04,28,14,43,17.10
2015,04,28,14,44,17.20
2015,04,28,14,45,17.40
2015,04,28,14,46,17.50
2015,04,28,14,47,17.50
2015,04,28,14,48,17.40
2015,04,28,14,49,17.20
2015,04,28,14,50,17.00
2015,04,28,14,51,16.80
2015,04,28,14,52,16.60
2015,04,28,14,53,16.60
2015,04,28,14,54,16.70
2015,04,28,14,55,16.80
2015,04,28,14,56,16.90
2015,04,28,14,57,17.00
2015,04,28,14,58,17.10
2015,04,28,14,59,17.10
2015,04,28,15,00,17.10
2015,04,28,15,01,17.10
2015,04,28,15,02,17.10
2015,04,28,15,03,17.10
2015,04,28,15,04,17.10
2015,04,28,15,05,17.10
2015,04,28,15,06,17.00
2015,04,28,15,07,16.90
2015,04,28,15,08,17.00
2015,04,28,15,09,17.00
2015,04,28,15,10,17.10
2015,04,28,15,11,17.10
2015,04,28,15,12,17.20
2015,04,28,15,13,17.20
2015,04,28,15,14,17.20
2015,04,28,15,15,17.30
2015,04,28,15,16,17.30
2015,04,28,15,17,17.40
2015,04,28,15,18,17.40
2015,04,28,15,19,17.40
2015,04,28,15,20,17.50
2015,04,28,15,21,17.50
2015,04,28,15,22,17.60
2015,04,28,15,23,17.60
2015,04,28,15,24,17.60
2015,04,28,15,25,17.50
2015,04,28,15,26,17.50
2015,04,28,15,27,17.50
2015,04,28,15,28,17.50
2015,04,28,15,29,17.60
2015,04,28,15,30,17.60
2015,04,28,15,31,17.60
2015,04,28,15,32,17.60
2015,04,28,15,33,17.50
2015,04,28,15,34,17.30
2015,04,28,15,35,17.10
2015,04,28,15,36,16.80
2015,04,28,15,37,16.50
2015,04,28,15,38,16.20
2015,04,28,15,39,15.90
2015,04,28,15,40,15.60
2015,04,28,15,41,15.40
2015,04,28,15,42,15.20
2015,04,28,15,43,15.10
2015,04,28,15,44,15.10
2015,04,28,15,45,15.10
2015,04,28,15,46,15.20
2015,04,28,15,47,15.30
2015,04,28,15,48,15.40
2015,04,28,15,49,15.50
2015,04,28,15,50,15.60
2015,04,28,15,51,15.50
2015,04,28,15,52,15.30
2015,04,28,15,53,15.20
2015,04,28,15,54,15.10
2015,04,28,15,55,15.10
2015,04,28,15,56,15.00
2015,04,28,15,57,14.90
2015,04,28,15,58,14.80
2015,04,28,15,59,14.70
2015,04,28,16,00,14.50
2015,04,28,16,01,14.40
2015,04,28,16,02,14.30
2015,04,28,16,03,14.20
2015,04,28,16,04,14.10
2015,04,28,16,05,14.00
2015,04,28,16,06,13.90
2015,04,28,16,07,13.90
2015,04,28,16,08,14.00
2015,04,28,16,09,13.90
2015,04,28,16,10,13.90
2015,04,28,16,11,14.00
2015,04,28,16,12,14.00
2015,04,28,16,13,14.10
2015,04,28,16,14,14.10
2015,04,28,16,15,14.00
2015,04,28,16,16,14.00
2015,04,28,16,17,14.00
2015,04,28,16,18,13.90
2015,04,28,16,19,13.90
2015,04,28,16,20,13.90
2015,04,28,16,21,14.00
2015,04,28,16,22,14.10
2015,04,28,16,23,14.10
2015,04,28,16,24,14.10
2015,04,28,16,25,14.30
2015,04,28,16,26,14.40
2015,04,28,16,27,14.40
2015,04,28,16,28,14.30
2015,04,28,16,29,14.30
2015,04,28,16,30,14.20
2015,04,28,16,31,14.30
2015,04,28,16,32,14.30
2015,04,28,16,33,14.40
2015,04,28,16,34,14.50
2015,04,28,16,35,14.50
2015,04,28,16,36,14.40
2015,04,28,16,37,14.50
2015,04,28,16,38,14.50
2015,04,28,16,39,14.60
2015,04,28,16,40,14.60
2015,04,28,16,41,14.60
2015,04,28,16,42,14.60
2015,04,28,16,43,14.60
2015,04,28,16,44,14.50
2015,04,28,16,45,14.50
2015,04,28,16,46,14.40
2015,04,28,16,47,14.50
2015,04,28,16,48,14.50
2015,04,28,16,49,14.60
2015,04,28,16,50,14.70
2015,04,28,16,51,14.70
2015,04,28,16,52,14.70
2015,04,28,16,53,14.70
2015,04,28,16,54,14.70
2015,04,28,16,55,14.70
2015,04,28,16,56,14.80
2015,04,28,16,57,14.70
2015,04,28,16,58,14.60
2015,04,28,16,59,14.60
2015,04,28,17,00,14.60
2015,04,28,17,01,14.60
2015,04,28,17,02,14.60
2015,04,28,17,03,14.50
2015,04,28,17,04,14.40
2015,04,28,17,05,14.40
2015,04,28,17,06,14.30
2015,04,28,17,07,14.30
2015,04,28,17,08,14.40
2015,04,28,17,09,14.40
2015,04,28,17,10,14.50
2015,04,28,17,11,14.50
2015,04,28,17,12,14.50
2015,04,28,17,13,14.50
2015,04,28,17,14,14.50
2015,04,28,17,15,14.60
2015,04,28,17,16,14.60
2015,04,28,17,17,14.70
2015,04,28,17,18,14.70
2015,04,28,17,19,14.70
2015,04,28,17,20,14.60
2015,04,28,17,21,14.60
2015,04,28,17,22,14.60
2015,04,28,17,23,14.60